Location: Newark
(3.1475°N, 101.6933°E)
Time: 16:48:11
(UTC+00:00)

Hubble Space Telescope - Visible Passes

Search period start: 18 October 2019 00:00
Search period end: 28 October 2019 00:00
Orbit: 536 x 540 km, 28.5° (Epoch: 17 October)

Date Brightness Start Highest point End Pass type
(mag) Time Alt. Az. Time Alt. Az. Time Alt. Az.
18 Oct 1.9 12:06:56 10° W 12:10:50 40° SSW 12:13:28 18° SSE visible
18 Oct 3.4 22:22:42 10° S 22:25:19 16° SSE 22:27:55 10° ESE visible
19 Oct 2.5 11:56:40 10° W 12:00:17 29° SSW 12:03:54 10° SSE visible
19 Oct 3.0 22:11:32 10° SSW 22:14:46 22° SSE 22:18:01 10° E visible
20 Oct 3.1 11:46:34 10° W 11:49:43 21° SSW 11:52:54 10° SSE visible
20 Oct 2.5 22:00:34 10° SSW 22:04:13 30° SSE 22:07:53 10° E visible
21 Oct 3.5 11:36:42 10° WSW 11:39:11 15° SSW 11:41:40 10° S visible
21 Oct 1.8 21:50:22 14° SW 21:53:40 43° SSE 21:57:35 10° ENE visible
22 Oct 3.7 11:27:27 10° SW 11:28:40 11° SSW 11:29:53 10° S visible
22 Oct 1.1 21:41:15 30° SW 21:43:06 63° SSE 21:47:10 10° ENE visible
23 Oct 0.6 21:32:07 72° WSW 21:32:31 88° NNW 21:36:39 10° ENE visible
24 Oct 1.4 21:22:55 45° NNE 21:22:55 45° NNE 21:26:01 10° NE visible
25 Oct 2.7 21:13:39 22° NNE 21:13:39 22° NNE 21:15:18 10° NE visible
26 Oct 3.5 21:04:17 11° NNE 21:04:17 11° NNE 21:04:29 10° NE visible
